{"data":{"norad_id":67876,"intl_designator":"2026-034AC","name":"STARLINK-36743","alt_names":[],"object_type":"PAYLOAD","status":"ACTIVE","operator":null,"country":"US","launch_date":"2026-02-20","launch_site_code":"AFETR","launch_vehicle":null,"mission":null,"orbit_class":"UNKNOWN","rcs_meters":null,"size_class":null,"mass_kg":null,"dimensions":null,"purposes":["comms"],"wikipedia_slug":null,"has_3d_model":false,"image_url":null,"decayed_at":null,"tle_current":{"epoch":"2026-05-25T04:22:14.475072Z","epoch_age_seconds":59038,"freshness":"FRESH","line1":"1 67876U 26034AC  26145.18211198  .00017135  00000+0  58919-3 0  9999","line2":"2 67876  53.1582 209.1791 0001176  87.8617 272.2519 15.30207835 15740","mean_motion":15.30207835,"eccentricity":0.0001176,"inclination_deg":53.1582,"raan_deg":209.1791,"arg_perigee_deg":87.8617,"mean_anomaly_deg":272.2519,"bstar":0.00058919,"rev_number":1574,"period_min":94.104863866417,"perigee_km":474.38572416916,"apogee_km":475.99762707366,"semimajor_km":6853.3286756214,"source":"CELESTRAK","updated_at":"2026-05-25T13:38:21.730787Z"}}}